Regional Weather Roundup
Issued by NWS Pendleton, OR

Home | Current Version | Previous Version | Text Only | Print | Product List | Glossary On
Versions: 1 2 3 4 5 6 7 8 9 10 11 12 13 14 15 16 17 18 19 20 21 22 23 24 25 26 27 28 29 30 31 32 33 34 35 36 37 38 39 40 41 42 43 44 45 46 47 48 49 50
000
ASUS46 KPDT 261525
RWRPDT
PENDLETON REGIONAL WEATHER ROUNDUP
NATIONAL WEATHER SERVICE PENDLETON OREGON
700 AM PST SUN FEB 26 2017

NOTE: FAIR INDICATES FEW OR NO CLOUDS BELOW 12,000 FEET WITH NO
SIGNIFICANT WEATHER AND/OR OBSTRUCTIONS TO VISIBILITY.

# INDICATES UNOFFICIAL STATION AND DATA

WAZ520-261610-
EAST SLOPES OF WASHINGTON CASCADES

CITY            SKY/WX      TMP DP  RH  WIND    PRES   REMARKS
#CLE ELUM HS    N/A         29  25  85  E1      29.67F
#CLE ELUM LAKE  N/A         N/A N/A N/A S13     29.72F
#GLENWOOD       N/A         29  27  92  CALM    29.76F
#MANASTASH CYN  N/A         26  20  78  CALM    29.66F
#NELSON 3SW     N/A         24  23  96  CALM    29.97F
#NILE           N/A         25  22  88  CALM    29.02F
#TEANAWAY 4NE   N/A         28  27  96  CALM    N/A
#TROUT LAKE 1NE N/A         28  26  92  CALM    29.76F
#TROUT LAKE 1E  N/A         28  26  92  CALM    29.72F
$$

WAZ521-261610-
SIMCOE HIGHLANDS

CITY            SKY/WX      TMP DP  RH  WIND    PRES   REMARKS
#CENTERVILLE 1SWN/A         29  25  85  CALM    29.74F
#GOLDENDALE 1NE N/A         31  26  81  E3      N/A
#GOLDENDALE 4W  N/A         31  18  58  E6      29.75F
#GOODNOE HILLS  N/A         33  26  75  NE2     29.65F
#LYLE 6NE       N/A         31  28  88  N2      29.73F
#PITT 4SE       N/A         28  26  92  E2      29.80F
$$

WAZ026-261610-
KITTITAS VALLEY

CITY            SKY/WX      TMP DP  RH  WIND    PRES   REMARKS
ELLENSBURG AP   LGT SNOW    31  27  85  E6      29.71F FOG
#ELLENSBURG CWU N/A         29  27  92  CALM    29.72F
#ELLENSBURG 3NE N/A         28  26  92  CALM    27.81F
#KITTITAS 4N    N/A         29  25  85  E1      29.73F
#KITTITAS 3S    N/A         27  25  92  CALM    29.78F
#THORP 6N       N/A         27  26  96  E9      29.79F
$$

WAZ027-261610-
YAKIMA VALLEY

CITY            SKY/WX      TMP DP  RH  WIND    PRES   REMARKS
SUNNYSIDE AP    RAIN        34  29  82  E5      29.78F
YAKIMA AIRPORT  CLOUDY      36  27  69  E5      29.74F
YAKIMA-VAGABOND CLOUDY      31  26  81  W3      29.70F
#DONALD 2NE     N/A         35  13  40  SE1     28.60S
#GRANDVIEW      N/A         35  27  72  CALM    29.82F
#MABTON         N/A         36  32  85  S1      29.77F
#MOXEE 2E       N/A         33   0  24  E7      29.75F
#NACHES 2SW     N/A         30  27  88  CALM    29.75S
#TERRACE HTS    N/A         34  26  72  CALM    29.75F
#TOPPENISH      N/A         36  29  75  S1      29.70F
#WEST VALLEY    N/A         33  27  78  CALM    29.77F
#W YAKIMA       N/A         33  26  75  CALM    29.79F
#WHITE SWAN 5E  N/A         35  29  78  CALM    29.78F
$$

WAZ028-261610-
LOWER COLUMBIA BASIN...WASHINGTON

CITY            SKY/WX      TMP DP  RH  WIND    PRES   REMARKS
PASCO           LGT RAIN    36  31  82  SW5     29.81F
PROSSER AWOS    N/A         36  34  92  W5      29.82S
RICHLAND AWOS   LGT DRIZZLE 37  34  89  CALM    29.81S
#BENTON CITY    N/A         35  32  89  CALM    29.72S
#CONNELL 5N     N/A         31  30  96  CALM    29.81F
#CONNELL 5NW    N/A         31  30  96  S1      29.77F
#ELTOPIA 6NW    N/A         32  30  92  CALM    28.75F
#KAHLOTUS       N/A         31  30  96  SW6     29.81F
#KENNEWICK 3S   N/A         34  31  89  SW1     29.82F
#PATERSON       N/A         38  31  76  N6      29.80F
#SAGEMOOR 2W    N/A         34  30  85  S5      29.65F
#TOUCHET 2S     N/A         36  32  85  SW10    29.81F
$$

WAZ029-261610-
FOOTHILLS OF THE BLUES...WASHINGTON

CITY            SKY/WX      TMP DP  RH  WIND    PRES   REMARKS
WALLA WALLA AP  LGT SNOW    33  32  96  S8      29.79F VSB 3/4
#CLYDE 6NW      N/A         32  30  92  CALM    29.81F
#DAYTON SCHOOL  N/A         31  25  78  S6      29.80F
#LOWDEN 2SE     N/A         35  33  92  E3      29.78F
#PLEASANT VIEW 1N/A         30  29  96  S6      29.85F
#PRESCOTT       N/A         33  32  96  CALM    29.81F
#WHITMAN COLLEGEN/A         33  31  92  N2      29.88F
#WAITSBURG 5S   N/A         31  30  96  S6      29.93S
#WALLA WALLA 5E N/A         33  31  92  S1      N/A
#WALLA WALLA U  N/A         34  32  92  CALM    29.84F
#WHITMAN MISSIONN/A         35  32  89  CALM    29.85F
$$

WAZ030-261610-
BLUE MOUNTAINS...WASHINGTON

CITY            SKY/WX      TMP DP  RH  WIND    PRES   REMARKS
#DIXIE 5SE      N/A         27  25  92  SW3     29.63F
#SKI BLUEWOOD   N/A         22  19  88  CALM    29.62F
$$

ORZ009-041-WAZ024-261610-
COLUMBIA RIVER GORGE

CITY            SKY/WX      TMP DP  RH  WIND    PRES   REMARKS
HOOD RIVER AP   RAIN        34  32  92  CALM    29.75F
THE DALLES AP   CLOUDY      36  32  85  CALM    29.77F
#ARLINGTON AIRPON/A         37  29  72  CALM    29.81F
#ARLINGTON HS   N/A         38  28  67  CALM    29.73F
#CELILO DOT     N/A         38  26  62  S6      N/A
#LYLE           N/A         38  34  85  CALM    29.79F
#MOSIER 1S      N/A         33  24  69  CALM    29.73F
#MURDOCK        N/A         36  32  85  CALM    29.77F
#RUFUS DOT      N/A         38  31  76  SE6     N/A
#SMITHVILLE     N/A         36  33  89  N1      29.72F

$$

ORZ510-261610-
NORTH CENTRAL OREGON

CITY            SKY/WX      TMP DP  RH  WIND    PRES   REMARKS
#CHENOWITH 1W   N/A         30  28  92  E3      N/A
#COW CYN RST AREN/A         31  20  63  S6      N/A
#GRASS VALLEY 1SN/A         32  25  75  S7      29.86F
#KENT DOT       N/A         32  17  53  N3      N/A
#MAUPIN SCHOOL  N/A         37  26  64  CALM    29.78F
#MORO SCHOOL    N/A         32  30  92  S6      29.79F
#SHANIKO 5WSW   N/A         29  15  55  N14     N/A    WCI 18
#SHANIKO 4NW    N/A         28  20  71  S12     29.65F WCI 18
#TYGH VALLEY 2NEN/A         35  27  72  N1      29.75F
#WAPANITIA AIRPON/A         32  25  75  CALM    29.77F
#WASCO DOT      N/A         34  28  78  SE5     N/A
#WASCO 5NE      N/A         32  28  85  CALM    29.79F
$$

ORZ511-261610-
CENTRAL OREGON

CITY            SKY/WX      TMP DP  RH  WIND    PRES   REMARKS
BEND AIRPORT    CLOUDY      30  18  60  S6      29.70F
MADRAS AIRPORT  CLOUDY      32  21  63  S7      29.72F
PRINEVILLE AP   CLOUDY      32  19  58  S9      29.70F
REDMOND AIRPORT CLOUDY      32  16  51  S9      29.70F
#ASHWOOD SCHOOL N/A         33  21  61  SE1     29.70F
#BEND 1SW       N/A         27  20  74  W3      N/A
#BEND-AWBREY    N/A         29  21  72  S6      29.77F
#BEND-KIM LN    N/A         32  19  58  W5      29.72F
#CULVER         N/A         31  20  63  SE1     29.70F
#CULVER 8W      N/A         32  17  53  SE1     29.72F
#LAKE BILLY CHINN/A         33  N/A N/A S8      29.82F
#POWELL BUTTE 3EN/A         31  18  58  SW10    N/A
#POWELL BUTTE   N/A         31  14  49  S13     29.68F WCI 21
#PRINEVILLE 3N  N/A         31  23  72  E3      29.79F
#WARM SPRINGS   N/A         38  24  57  CALM    29.68F

$$


ORZ509-261610-
EAST SLOPES OF OREGON CASCADES

CITY            SKY/WX      TMP DP  RH  WIND    PRES   REMARKS
SISTERS AWOS    N/A         28  19  68  CALM    29.67F
#BLUE BOX PASS  N/A         24  N/A N/A S6      N/A
#CAMP SHERMAN   N/A         30  21  69  CALM    29.82F
#LA PINE 4NW    N/A         23  17  77  CALM    29.86F
#LAVA BUTTE DOT N/A         24  15  68  SE2     N/A
#SISTERS ODOT   N/A         30  N/A N/A S2      N/A
#SISTERS 3N     N/A         29  13  51  CALM    29.70F
#SUNRIVER       N/A         24  19  81  S2      29.81F
#TUMALO 3W      N/A         28  18  66  SE6     29.65F
#WANOGA BUTTE D N/A         18  13  80  W16     N/A    WCI  3

$$

ORZ044-261610-
LOWER COLUMBIA BASIN...OREGON

CITY            SKY/WX      TMP DP  RH  WIND    PRES   REMARKS
HERMISTON       LGT RAIN    37  32  82  S8      29.79F
#BOARDMAN SCHOOLN/A         39  31  73  SW5     29.80F
#BOARDMAN 8SW   N/A         38  31  76  SW6     29.79F
#ECHO 8SW       N/A         37  31  79  CALM    29.81F
#I-84 EX 198 DOTN/A         33  32  96  N6      N/A
#IONE SCHOOL    N/A         36  19  50  CALM    29.82F
#UMATILLA       N/A         40  28  62  CALM    29.75S
$$

ORZ507-261610-
NORTHERN FOOTHILLS OF THE BLUES

CITY            SKY/WX      TMP DP  RH  WIND    PRES   REMARKS
PENDLETON AIRPT LGT SNOW    32  32  100 SE7     29.77F VSB 1/4
#ADAMS 3WNW     N/A         31  29  92  CALM    29.83F
#ATHENA         N/A         31  30  96  CALM    29.86F
#HELIX SCHOOL   N/A         31  30  96  N3      29.83F
#HELIX 3N       N/A         31  30  96  S5      29.74F
#HOLDMAN 5SE    N/A         32  30  92  CALM    29.78F
#HOLDMAN 6E     N/A         30  29  96  SE2     29.62F
#M-F FERNDALE   N/A         34  30  85  CALM    29.78F
#M-F GROVE ELEM N/A         33  30  89  CALM    29.78F
#M-FREEWATER 5SEN/A         33  31  92  CALM    29.80F
#PENDLETON DNTN N/A         33  23  66  CALM    29.80S
#PDT AQUATIC CTRN/A         32  26  78  CALM    29.78F
#PDT SUNRIDGE   N/A         32  30  92  E1      29.81F
#PENDLETON 7NW  N/A         33  29  85  CALM    31.81S
#PILOT ROCK 1S  N/A         32  25  75  CALM    29.79F
#PILOT ROCK     N/A         32  28  85  E1      29.79F
#TUTUILLA       N/A         33  30  89  CALM    29.83F
#UMAPINE 2E     N/A         35  33  92  E2      29.78F
#WESTON SCHOOL  N/A         30  27  88  W1      29.72F

$$

ORZ508-261610-
SOUTHERN FOOTHILLS OF THE BLUES

CITY            SKY/WX      TMP DP  RH  WIND    PRES   REMARKS
LEXINGTON       CLOUDY      36  25  64  N5      29.78F
#AJAX           N/A         34  17  49  SE7     29.88F
#CONDON 5W      N/A         28  21  75  S10     29.65F
#HEPPNER EOC    N/A         34  24  66  SW12    29.75S WCI 25
#HEPPNER 4NE    N/A         32  22  66  SW5     29.81F
#LEXINGTON 2SE  N/A         36  26  67  CALM    29.72S
#MIKKALO        N/A         36  25  64  S2      29.86F
#OLEX 4N        N/A         36  30  79  W2      29.75F
#RUGGS 5NE      N/A         31  23  72  SW7     29.88S
#RUGGS 2SW      N/A         32  23  69  W8      29.84S

$$

ORZ502-503-261610-
BLUE MOUNTAINS

CITY            SKY/WX      TMP DP  RH  WIND    PRES   REMARKS
MEACHAM         LGT SNOW    26  22  85  CALM    29.69S FOG
#BATTLE MTN DOT N/A         23  21  92  S6      N/A
#GREENHORN 9SW  N/A         22  19  88  CALM    29.75F
#HEPPNER 15SE   N/A         24  20  84  CALM    29.98F
#LADD CYN SMT   N/A         26  21  81  SE9     N/A
#LADD CREEK ODOTN/A         29  18  63  CALM    N/A
#LONG CREEK HS  N/A         28  25  88  CALM    N/A
#N POWDER DOT   N/A         27  24  88  W1      N/A
#PIKES PEAK     N/A         25  23  92  NW14    27.99S WCI 13
#TOLLGATE       N/A         20  19  96  SW3     29.54F
#TROY SCHOOL    N/A         34  29  82  CALM    29.67F
#UKIAH          N/A         27  24  88  CALM    29.76F
#WESTON 4E      N/A         26  25  96  S3      29.81F
$$

ORZ505-261610-
JOHN DAY BASIN

CITY            SKY/WX      TMP DP  RH  WIND    PRES   REMARKS
JOHN DAY        CLOUDY      31  20  63  S15     29.72F WCI 20
#JOHN DAY KJDY  N/A         29  N/A N/A S1      30.30F
#ANTELOPE 9ESE  N/A         37  24  59  CALM    N/A
#DAYVILLE SCHOOLN/A         34  21  58  S3      29.72F
#MITCHELL       N/A         32  22  66  CALM    29.89F
#MITCHELL 8NW   N/A         29  18  63  SW9     29.62F
#MONUMENT HS    N/A         30  25  81  CALM    29.72F
#MT. VERNON 5SE N/A         25  17  71  SE3     29.66F
#SPRAY SCHOOL   N/A         30  N/A N/A CALM    N/A
#WINLOCK        N/A         28  22  78  CALM    29.70F
$$

ORZ506-261610-
OCHOCO AND JOHN DAY HIGHLANDS

CITY            SKY/WX      TMP DP  RH  WIND    PRES   REMARKS
#HORSE RIDGE DO N/A         27  14  57  S2      N/A
#PAULINA SCHOOL N/A         30  19  63  SW8     N/A
#PINE MTN OBS   N/A         17  15  92  SE8     N/A
#PRAIRIE CITY   N/A         26  18  71  CALM    29.88
#SENECA         N/A         23  N/A N/A SW5     N/A
#SENECA 9NW     N/A         15  12  88  CALM    29.91F
$$

ORZ049-261610-
GRANDE RONDE VALLEY

CITY            SKY/WX      TMP DP  RH  WIND    PRES   REMARKS
LA GRANDE       CLOUDY      32  21  63  SW12    29.74F WCI 23
#COVE           N/A         29  27  92  SE2     29.80F
#COVE SCHOOL    N/A         29  26  88  CALM    29.78F
#COVE 6NW       N/A         29  26  88  CALM    29.85F
#ELGIN 3N       N/A         28  21  75  SW7     29.73F
#ELGIN 1E       N/A         30  25  81  SE2     N/A
#IMBLER SCHOOL  N/A         28  24  85  SE7     29.72F
#ISLAND CITY 4N N/A         37  36  96  E1      29.73F
#UNION 1S       N/A         31  23  72  S1      29.85F
$$

ORZ050-261610-
WALLOWA COUNTY

CITY            SKY/WX      TMP DP  RH  WIND    PRES   REMARKS
JOSEPH AIRPORT  CLOUDY      25  21  84  CALM    29.70S
#IMNAHA SCHOOL  N/A         34  26  72  N1      29.78S
#IMNAHA 10S     N/A         29  19  66  CALM    30.11S
#JOSEPH 3N      N/A         25  19  78  CALM    29.75S
#JOSEPH 3W      N/A         22  16  77  CALM    29.54
#LOSTINE        N/A         26  24  92  CALM    29.64F
#LOSTINE 3SE    N/A         26  24  92  CALM    29.75F
#MT HOWARD 8000 N/A         10   7  87  CALM    29.44F
#PROMISE 1S     N/A         25  22  88  CALM    29.91F
#WALLOWA SCHOOL N/A         27  24  88  CALM    29.73F



$$



USA.gov is the U.S. government's official web portal to all federal, state and local government web resources and services.